Station 42001 (LLNR 1465) - MID GULF - 180 nm South of Southwest Pass, LA Image indicating link to RSS feed of recent meteorological observations for station 42001


Conditions at 42001 as of
(11:00 am CDT)
1600 GMT on 06/16/2024:
     

Click on the graph icon in the table below to see a time series plot of the last five days of that observation.

5-day plot - Wind Direction Wind Direction (WDIR):ESE ( 120 deg true )
5-day plot - Wind Speed Wind Speed (WSPD): 11.7 kts
5-day plot - Wind Gust Wind Gust (GST): 13.6 kts
5-day plot - Atmospheric Pressure Atmospheric Pressure (PRES):29.86 in
5-day plot - Pressure Tendency Pressure Tendency (PTDY):+0.02 in ( Rising )
5-day plot - Air Temperature Air Temperature (ATMP): 85.5 °F
5-day plot - Water Temperature Water Temperature (WTMP): 85.1 °F
5-day plot - Dew Point Dew Point (DEWP): 83.3 °F
5-day plot - Heat Index Heat Index (HEAT):105.1 °F
5-day plot - Wind Speed at 10 Meters Wind Speed at 10 meters (WSPD10M): 11.7 kts
5-day plot - Wind Speed at 20 Meters Wind Speed at 20 meters (WSPD20M): 13.6 kts
5-day plot -  Wind Speed, Wind Gust and Atmospheric Pressure Combined plot of Wind Speed, Gust, and Air Pressure
Supplemental Measurements
Highest 1-minute Wind Speed
Time (CDT)5-day plot - 1-Minute Wind Speed WSPD 5-day plot - 1-Minute Wind Direction WDIR
10:57 am 11.7 kts-
Previous observations
TIME
(CDT)
5-day plot - Wind Direction
WDIR
 
5-day plot - Wind Speed
WSPD
kts
5-day plot - Wind Gust
GST
kts
5-day plot - Wave Height
WVHT
ft
5-day plot - Dominant Wave Period
DPD
sec
5-day plot - Average Wave Period
APD
sec
5-day plot - Mean Wave Direction
MWD
 
5-day plot - Atmospheric Pressure
PRES
in
5-day plot - Pressure Tendency
PTDY
in
5-day plot - Air Temperature
ATMP
°F
5-day plot - Water Temperature
WTMP
°F
5-day plot - Dew Point
DEWP
°F
5-day plot - Salinity
SAL
psu
5-day plot - Visibility
VIS
nmi
5-day plot - Tide (above MLLW)
TIDE
ft
2024-06-16 10:50 amESE 11.7 15.5 3.9 64.6 SE29.85- 85.6 85.1 83.5---
2024-06-16 10:40 amESE 13.6 15.5----29.85- 85.5 85.1 83.1---
2024-06-16 10:30 amESE 13.6 15.5----29.85- 85.5 85.1 83.1---
2024-06-16 10:20 amESE 13.6 15.5 3.9 64.6 SE29.85- 85.5 85.1 83.1---
2024-06-16 10:10 amESE 11.7 15.5 3.9-4.6 SE29.85- 85.5 85.1 83.1---
2024-06-16 10:00 amESE 13.6 15.5----29.85+0.02 85.6 85.1 83.3---
2024-06-16 09:50 amESE 11.7 13.6 4.3 64.6 SE29.84- 85.6 84.9 83.1---
2024-06-16 09:40 amESE 11.7 15.5----29.84- 85.6 84.9 82.9---
2024-06-16 09:30 amESE 11.7 15.5----29.84- 85.6 84.9 82.9---
2024-06-16 09:20 amESE 11.7 15.5 4.3 64.7 SE29.84- 85.6 84.9 82.8---
2024-06-16 09:10 amESE 11.7 15.5 4.3-4.7 SE29.85- 85.6 84.9 82.6---
2024-06-16 09:00 amESE 11.7 13.6----29.85+0.03 85.6 84.9 82.8---
2024-06-16 08:50 amESE 13.6 17.5 4.3 64.6 SE29.85- 85.6 84.9 82.8---
2024-06-16 08:40 amESE 13.6 17.5 4.3-4.6 SE29.84- 85.6 84.9 82.6---
2024-06-16 08:30 amESE 13.6 17.5----29.84- 85.5 84.9 82.6---
2024-06-16 08:20 amESE 13.6 15.5 3.9 64.5ESE29.84- 85.6 84.9 82.8---
2024-06-16 08:10 amESE 13.6 17.5 3.9-4.5ESE29.84- 85.5 84.9 82.6---
2024-06-16 08:00 amESE 13.6 17.5----29.84+0.02 85.5 84.9 82.9---
2024-06-16 07:50 am SE 13.6 17.5 3.9 64.6 SE29.83- 85.3 84.9 82.8---
2024-06-16 07:40 am SE 15.5 19.4----29.83- 85.3 84.9 82.9---
2024-06-16 07:30 am SE 15.5 17.5----29.83- 85.3 85.1 82.9---
2024-06-16 07:20 am SE 15.5 17.5 3.9 64.6 SE29.82- 85.3 85.1 83.1---
2024-06-16 07:10 am SE 15.5 19.4 3.9-4.6 SE29.83- 85.1 85.1 82.8---
2024-06-16 07:00 am SE 13.6 17.5----29.83+0.01 85.1 85.1 82.9---
2024-06-16 06:50 am SE 15.5 17.5 4.3 64.7 SE29.83- 85.1 85.1 82.8---
2024-06-16 06:40 am SE 13.6 17.5----29.82- 84.9 85.1 82.8---
2024-06-16 06:30 am SE 11.7 15.5----29.82- 84.9 85.1 83.1---
2024-06-16 06:20 am SE 13.6 15.5 4.3 64.7 SE29.82- 84.9 85.1 82.9---
2024-06-16 06:10 am SE 13.6 17.5 4.3-4.7 SE29.82- 84.9 85.1 82.8---
2024-06-16 06:00 am SE 13.6 17.5----29.82+0.00 84.7 85.1 82.2---
2024-06-16 05:50 am SE 13.6 17.5----29.82- 84.7 85.1 82.8---
2024-06-16 05:40 am SE 13.6 17.5----29.82- 84.7 85.1 82.6---
2024-06-16 05:30 amESE 13.6 15.5----29.82- 84.7 85.1 82.6---
2024-06-16 05:20 am SE 13.6 17.5 4.3 64.8ESE29.82- 84.9 85.1 82.4---
2024-06-16 05:10 am SE 15.5 17.5 4.3-4.8ESE29.82- 84.9 85.1 82.2---
2024-06-16 05:00 am SE 15.5 17.5----29.81+0.00 84.9 85.1 82.2---
2024-06-16 04:50 am SE 13.6 17.5 3.9 64.6ESE29.81- 84.9 85.1 82.4---
2024-06-16 04:40 am SE 13.6 17.5 3.9-4.6ESE29.81- 85.1 85.1 82.4---
2024-06-16 04:30 am SE 13.6 17.5----29.81- 85.1 85.1 82.0---
2024-06-16 04:20 am SE 13.6 15.5 4.3 64.5ESE29.81- 85.1 85.1 82.4---
2024-06-16 04:10 am SE 13.6 17.5 4.3-4.5ESE29.81- 84.9 85.1 82.2---
2024-06-16 04:00 am SE 13.6 17.5----29.81-0.01 84.9 85.1 82.4---
2024-06-16 03:50 am SE 13.6 15.5 3.9 54.4 SE29.81- 84.9 85.1 82.2---
2024-06-16 03:40 am SE 15.5 19.4----29.81- 84.9 85.1 82.0---
2024-06-16 03:30 am SE 13.6 19.4----29.82- 84.9 85.1 82.0---
2024-06-16 03:20 am SE 15.5 19.4 3.9 54.3 SE29.82- 84.9 85.1 82.2---
2024-06-16 03:10 am SE 15.5 17.5 3.9-4.3 SE29.82- 84.9 85.1 82.2---
2024-06-16 03:00 am SE 17.5 19.4----29.82-0.01 84.9 85.1 81.9---
2024-06-16 02:50 am SE 15.5 21.4 3.6 54.2ESE29.82- 84.9 85.1 82.2---
2024-06-16 02:40 am SE 15.5 19.4----29.82- 84.7 85.1 82.0---
2024-06-16 02:30 am SE 15.5 19.4----29.82- 84.6 85.1 82.0---
2024-06-16 02:20 am SE 15.5 17.5 3.6 54.3 SE29.82- 84.6 85.1 82.0---
2024-06-16 02:10 am SE 15.5 17.5 3.6-4.3 SE29.81- 84.6 85.1 82.0---
2024-06-16 02:00 amSSE 15.5 19.4----29.82-0.02 84.6 85.1 82.0---
2024-06-16 01:50 amSSE 15.5 19.4 3.9 54.3 SE29.82- 84.6 85.1 81.9---
2024-06-16 01:40 amSSE 13.6 17.5 3.9-4.3 SE29.82- 84.6 85.1 81.9---
2024-06-16 01:30 amSSE 13.6 17.5----29.81- 84.6 85.1 81.7---
2024-06-16 01:20 amSSE 15.5 17.5 3.6 54.2 SE29.81- 84.6 85.1 81.5---
2024-06-16 01:10 amSSE 15.5 17.5 3.6-4.2 SE29.82- 84.6 85.1 81.1---
2024-06-16 01:00 amSSE 15.5 17.5----29.82+0.00 84.7 85.1 81.3---
2024-06-16 12:50 amSSE 15.5 19.4 3.3 54.1 E29.83- 84.7- 81.3---
2024-06-16 12:40 amSSE 15.5 19.4----29.83- 84.7 85.1 81.1---
2024-06-16 12:30 amSSE 15.5 17.5----29.83- 84.7 85.3 81.1---
2024-06-16 12:20 amSSE 15.5 21.4----29.83- 84.6- 81.1---
2024-06-16 12:10 amSSE 15.5 19.4----29.83- 84.7 85.3 81.3---
2024-06-16 12:00 amSSE 15.5 19.4----29.83+0.04 84.6 85.3 80.8---
2024-06-15 11:50 pmSSE 15.5 19.4 2.6 64.1ENE29.83- 84.4 85.3 80.6---
2024-06-15 11:40 pmSSE 15.5 17.5----29.83- 84.4 85.3 81.3---
2024-06-15 11:30 pmSSE 13.6 17.5----29.84- 84.4 85.3 81.5---
2024-06-15 11:20 pm SE 13.6 17.5 2.6 64.1ENE29.84- 84.2 85.3 81.3---
2024-06-15 11:10 pmSSE 13.6 17.5 2.6-4.1ENE29.84- 83.7 85.3 81.5---
2024-06-15 11:00 pm SE 5.8 11.7----29.84+0.06 82.0 85.3 80.6---
2024-06-15 10:50 pmESE 3.9 5.8 3.0 54.1 E29.84- 81.5 85.3 80.4---
2024-06-15 10:40 pmESE 5.8 7.8 3.0-4.1 E29.84- 80.8 85.3 79.9---
2024-06-15 10:30 pmESE 7.8 13.6----29.83- 80.2 85.3 79.3---
2024-06-15 10:20 pm E 13.6 19.4 3.0 64.2ENE29.83- 81.3 85.3 79.9---
2024-06-15 10:10 pm E 17.5 23.3 3.0-4.2ENE29.83- 82.9 85.3 80.6---
2024-06-15 10:00 pm E 11.7 13.6----29.82+0.05 84.4 85.3 82.4---
2024-06-15 09:50 pm E 11.7 13.6 3.0 54.4ENE29.81- 84.4 85.3 82.2---
2024-06-15 09:40 pm E 11.7 13.6 3.0-4.4ENE29.81- 84.2 85.3 81.9---
2024-06-15 09:30 pm E 11.7 13.6----29.81- 84.2 85.3 81.9---
2024-06-15 09:20 pm E 11.7 15.5 3.0 54.3ENE29.81- 84.0 85.3 81.7---
2024-06-15 09:10 pm E 11.7 15.5 3.0-4.3ENE29.80- 84.0 85.3 82.0---
2024-06-15 09:00 pm E 11.7 15.5----29.80+0.03 84.0 85.3 82.0---
2024-06-15 08:50 pm E 11.7 13.6 2.6 64.2ENE29.80- 84.2 85.3 82.2---
2024-06-15 08:40 pm E 11.7 13.6----29.79- 84.2 85.3 82.0---
2024-06-15 08:30 pmENE 9.7 13.6----29.79- 84.0 85.3 81.7---
2024-06-15 08:20 pmENE 7.8 9.7 3.3 54.4ENE29.78- 84.2 85.3 81.9---
2024-06-15 08:10 pmENE 7.8 9.7 3.3-4.4ENE29.78- 84.0 85.3 81.7---
2024-06-15 08:00 pm NE 9.7 11.7----29.78+0.00 84.0 85.3 81.7---
2024-06-15 07:50 pmENE 9.7 11.7 3.0 64.2ENE29.78- 84.0 85.3 81.9---
2024-06-15 07:40 pmENE 9.7 13.6----29.78- 84.0 85.3 81.5---
2024-06-15 07:30 pm NE 9.7 11.7----29.78- 83.8 85.3 81.5---
2024-06-15 07:20 pmENE 9.7 13.6 3.0 64.3ENE29.77- 84.0 85.3 81.9---
2024-06-15 07:10 pmENE 9.7 11.7 3.0-4.3ENE29.77- 83.8 85.3 81.9---
2024-06-15 07:00 pm NE 9.7 11.7----29.77-0.03 83.8 85.3 81.9---
2024-06-15 06:50 pm NE 9.7 11.7 3.3 54.3 NE29.77- 83.8 85.3 81.9---
2024-06-15 06:40 pmENE 11.7 13.6----29.77- 84.0 85.3 81.7---
2024-06-15 06:20 pmENE 11.7 13.6 3.3 54.3 NE29.77- 83.7 85.3 81.3---
2024-06-15 06:10 pmENE 11.7 13.6----29.77- 83.8 85.3 81.5---
2024-06-15 06:00 pmENE 11.7 13.6 3.3-4.3 NE29.77-0.04 84.0 85.3 81.5---
2024-06-15 05:50 pmENE 9.7 13.6 3.3 54.3 NE29.77- 84.0 85.3 81.1---
2024-06-15 05:40 pmENE 9.7 11.7 3.3-4.3 NE29.77- 84.2 85.3 81.0---
2024-06-15 05:30 pmENE 11.7 13.6----29.77- 84.2 85.3 81.1---
2024-06-15 05:20 pmENE 9.7 13.6 3.3 54.2ENE29.77- 84.0 85.3 81.1---
2024-06-15 05:10 pmENE 7.8 9.7 3.3-4.2ENE29.77- 83.8 85.3 81.5---
2024-06-15 05:00 pm E 9.7 11.7----29.78-0.04 83.8 85.3 81.3---
2024-06-15 04:50 pm E 9.7 11.7 3.6 54.3 NE29.78- 83.5 85.1 80.6---
2024-06-15 04:40 pm E 9.7 11.7 3.6-4.3 NE29.78- 83.5 85.1 81.5---
2024-06-15 04:30 pm E 9.7 13.6----29.78- 83.3 85.1 80.8---
2024-06-15 04:20 pm E 9.7 13.6 3.6 54.2ENE29.78- 83.3 85.1 80.6---
2024-06-15 04:10 pm E 13.6 17.5 3.6-4.2ENE29.80- 83.8 85.1 81.0---
2024-06-15 04:00 pmENE 11.7 15.5----29.80-0.04 84.2 85.1 81.3---
2024-06-15 03:50 pm E 13.6 17.5 3.6 54.2 NE29.80- 84.0 85.1 81.1---
2024-06-15 03:40 pmENE 13.6 17.5----29.80- 83.7 85.1 81.1---
2024-06-15 03:30 pmENE 13.6 17.5----29.80- 84.0 85.1 81.9---
2024-06-15 03:20 pm NE 9.7 17.5 3.6 54.2ENE29.80- 82.0- 79.2---
2024-06-15 03:10 pm NE 15.5 21.4 3.6-4.2ENE29.81- 81.9 85.1 79.5---
2024-06-15 03:00 pm NE 11.7 15.5----29.81-0.01 83.1 85.1 80.2---
2024-06-15 02:50 pm NE 9.7 13.6 3.3 54.1ENE29.81- 82.4 85.1 78.8---
2024-06-15 02:40 pm NE 9.7 13.6 3.3-4.1ENE29.82- 81.5 85.1 79.3---
2024-06-15 02:30 pm NE 11.7 17.5----29.82- 81.5 85.1 79.7---
2024-06-15 02:20 pmENE 19.4 25.3 3.6 43.9ENE29.81- 81.9 85.1 79.2---
2024-06-15 02:10 pm E 17.5 21.4 3.6-3.9ENE29.81- 82.8 85.1 80.1---
2024-06-15 02:00 pm E 17.5 21.4----29.82-0.01 83.7 85.1 81.3---
2024-06-15 01:50 pmENE 15.5 19.4 3.3 53.9 NE29.82- 84.6 85.1 82.4---
2024-06-15 01:40 pmENE 17.5 21.4----29.82- 84.6 85.1 82.0---
2024-06-15 01:30 pmENE 15.5 19.4----29.83- 84.6 85.1 82.0---
2024-06-15 01:20 pmENE 15.5 19.4 3.0 53.8 E29.83- 84.6 85.1 82.2---
2024-06-15 01:10 pmENE 15.5 19.4 3.0-3.8 E29.83- 84.7 85.1 82.6---
2024-06-15 01:00 pmENE 15.5 19.4----29.83+0.00 84.7 85.1 82.2---
2024-06-15 12:50 pmENE 15.5 19.4 3.0 53.9ENE29.83- 84.4 85.1 82.0---
2024-06-15 12:40 pmENE 15.5 19.4----29.83- 84.6 85.1 82.0---
2024-06-15 12:30 pmENE 15.5 17.5----29.83- 84.4 85.1 81.9---
2024-06-15 12:20 pmENE 15.5 17.5 2.6 43.8ENE29.83- 84.6 85.1 82.2---
2024-06-15 12:10 pmENE 13.6 19.4 2.6-3.8ENE29.83- 84.4 85.1 82.2---
2024-06-15 12:00 pmENE 13.6 17.5----29.83+0.00 83.7 85.1 80.8---
2024-06-15 11:50 am NE 15.5 19.4 2.6 53.8ENE29.83- 84.4 85.1 81.9---
2024-06-15 11:40 am NE 13.6 17.5 2.6-3.8ENE29.83- 84.7 85.1 82.2---
2024-06-15 11:30 am NE 13.6 15.5----29.83- 84.7 85.1 82.2---
2024-06-15 11:20 am NE 13.6 17.5 2.3 63.8 NE29.83- 84.7 85.1 82.2---
2024-06-15 11:10 am NE 15.5 17.5 2.3-3.8 NE29.83- 84.7 84.9 82.0---
2024-06-15 11:00 amENE 13.6 17.5----29.83+0.00 84.7 84.9 82.0---
2024-06-15 10:50 am NE 13.6 17.5 2.6 63.9 NE29.83- 84.7 84.9 82.0---

Detailed Wave Summary
for 42001 as of (10:40 am CDT)
1540 GMT on 06/16/2024:

These wave data are displayed in rounded times.

     

Click on the graph icon in the table below to see a time series plot of the last five days of that observation.

5-day plot - Significant Wave Height Significant Wave Height (WVHT): 3.9 ft
5-day plot - Swell Height Swell Height (SwH): 1.0 ft
5-day plot - Swell Period Swell Period (SwP): 8.3 sec
5-day plot - Swell Direction Swell Direction (SwD): E
5-day plot - Wind Wave Height Wind Wave Height (WWH): 3.6 ft
5-day plot - Wind Wave Period Wind Wave Period (WWP): 5.6 sec
5-day plot - Wind Wave Direction Wind Wave Direction (WWD): SE
5-day plot - Wave Steepness Wave Steepness (STEEPNESS): STEEP
5-day plot - Average Wave Period Average Wave Period (APD): 4.6 sec
Previous observations
TIME
(CDT)
5-day plot - Wave Height
WVHT
ft
5-day plot - Swell Height
SwH
ft
5-day plot - Swell Period
SwP
sec
5-day plot - Swell Direction
SwD
 
5-day plot - Wind Wave Height
WWH
ft
5-day plot - Wind Wave Period
WWP
sec
5-day plot - Wind Wave Direction
WWD
 
5-day plot - Wave Steepness
STEEPNESS
 
5-day plot - Average Wave Period
APD
sec
2024-06-16 10:10 am 3.9 2.0 6.2 SE 3.3 4.5 ESE STEEP 4.6
2024-06-16 09:40 am 4.3 2.3 10.0 W 3.6 5.6 SEVERY_STEEP 4.6
2024-06-16 09:10 am 4.3 2.0 6.7ESE 3.9 5.9 SE STEEP 4.7
2024-06-16 08:40 am 4.3 1.3 10.0 S 3.9 5.9 SE STEEP 4.6
2024-06-16 08:10 am 3.9 1.0 11.4ESE 3.6 5.9 ESE STEEP 4.5
2024-06-16 07:40 am 3.9 0.0-- 3.9 5.9 SE STEEP 4.6
2024-06-16 07:10 am 3.9 0.3 11.4SSE 3.9 5.9 SE STEEP 4.6
2024-06-16 06:40 am 4.3 0.7 11.4WNW 4.3 5.6 SEVERY_STEEP 4.7
2024-06-16 06:10 am 4.3 0.0-- 4.3 5.9 SE STEEP 4.7
2024-06-16 05:10 am 4.3 0.0-- 4.3 6.2 ESE STEEP 4.8
2024-06-16 04:40 am 3.9 1.0 11.4 SW 3.9 5.9 ESE STEEP 4.6
2024-06-16 04:10 am 4.3 0.0-- 4.3 5.6 ESEVERY_STEEP 4.5
2024-06-16 03:40 am 3.9 0.0-- 3.9 4.8 SEVERY_STEEP 4.4
2024-06-16 03:10 am 3.9 0.0-- 3.9 4.8 SEVERY_STEEP 4.3
2024-06-16 02:40 am 3.6 0.3 11.4 E 3.6 4.8 ESEVERY_STEEP 4.2
2024-06-16 02:10 am 3.6 0.0-- 3.6 4.8 SEVERY_STEEP 4.3
2024-06-16 01:40 am 3.9 0.7 9.1 SW 3.9 4.5 SEVERY_STEEP 4.3
2024-06-16 01:10 am 3.6 0.7 11.4 SE 3.6 4.8 SEVERY_STEEP 4.2
2024-06-16 12:40 am 3.3 0.3 7.7 E 3.3 4.5 EVERY_STEEP 4.1
2024-06-15 11:40 pm 2.6 1.0 6.7 E 2.3 5.9 ENE N/A 4.1
2024-06-15 11:10 pm 2.6 0.7 6.7ESE 2.6 5.6 ENE STEEP 4.1
2024-06-15 10:40 pm 3.0 2.3 5.3 E 1.6 3.2 ENE STEEP 4.1
2024-06-15 10:10 pm 3.0 0.0-- 3.0 6.2 ENE STEEP 4.2
2024-06-15 09:40 pm 3.0 2.0 11.4 NW 2.3 5.3 ENE STEEP 4.4
2024-06-15 09:10 pm 3.0 0.0-- 3.0 5.3 ENE STEEP 4.3
2024-06-15 08:40 pm 2.6 1.6 5.9ENE 2.3 5.0 ENE STEEP 4.2
2024-06-15 08:10 pm 3.3 2.6 5.3ENE 1.6 3.6 ENE STEEP 4.4
2024-06-15 07:40 pm 3.0 2.3 5.6ENE 2.0 4.3 E STEEP 4.2
2024-06-15 07:10 pm 3.0 2.0 5.9ENE 2.0 4.5 ENE STEEP 4.3
2024-06-15 06:40 pm 3.3 0.0-- 3.3 5.3 NE STEEP 4.3
2024-06-15 06:10 pm 3.3 1.3 7.7 SE 3.0 5.3 NEVERY_STEEP 4.3
2024-06-15 05:40 pm 3.3 2.3 5.3 NE 2.3 3.6 ENEVERY_STEEP 4.3
2024-06-15 05:10 pm 3.3 2.6 5.3ENE 1.6 4.0 ENEVERY_STEEP 4.2
2024-06-15 04:40 pm 3.6 2.6 5.3 NE 2.3 4.2 NEVERY_STEEP 4.3
2024-06-15 04:10 pm 3.6 0.0-- 3.6 4.5 ENEVERY_STEEP 4.2
2024-06-15 03:40 pm 3.6 0.7 8.3 NE 3.6 5.3 NEVERY_STEEP 4.2
2024-06-15 03:10 pm 3.6 0.3 8.3ESE 3.6 4.8 ENEVERY_STEEP 4.2
2024-06-15 02:40 pm 3.3 1.6 5.3 NE 3.0 4.8 ENEVERY_STEEP 4.1
2024-06-15 02:10 pm 3.6 0.3 8.3ENE 3.6 4.0 ENEVERY_STEEP 3.9
2024-06-15 01:40 pm 3.3 0.0-- 3.3 5.0 NEVERY_STEEP 3.9
2024-06-15 01:10 pm 3.0 0.3 8.3 SE 3.0 4.5 EVERY_STEEP 3.8
2024-06-15 12:40 pm 3.0 0.3 8.3ENE 3.0 4.5 ENEVERY_STEEP 3.9
2024-06-15 12:10 pm 2.6 0.0-- 2.6 4.2 ENEVERY_STEEP 3.8
2024-06-15 11:40 am 2.6 0.3 7.7ESE 2.6 4.5 ENEVERY_STEEP 3.8
2024-06-15 11:10 am 2.3 0.3 9.1NNW 2.3 5.6 NE N/A 3.8

Plot of wave energy versus frequency (and period)